When you browse on this site, cookies collect data to enhance your experience and personalize the content and advertising you see.
Visit our Privacy Policy to learn more. By continuing to use the site, you agree to this use of cookies and data.
  • In Austria
  • List of Countries
  • For 7 days
  • Water Temperature
  • Weather Map
  • News
  • Weather Widgets
  • user-avatar
    Login

    Hourly Weather Castelo Branco

    Today, 30 March, Monday

    Time Temperature Precipitation Wind Pressure Humidity
    00:00 +10°C° 0 mm 1 mps 729 mmHg 80%
    01:00 +10°C° 0 mm 1 mps 728 mmHg 81%
    02:00 +10°C° 0 mm 1 mps 728 mmHg 81%
    03:00 +9°C° 0 mm 1 mps 728 mmHg 81%
    04:00 +9°C° 0 mm 1 mps 727 mmHg 82%
    05:00 +9°C° 0 mm 1 mps 727 mmHg 82%
    06:00 +8°C° 0 mm 2 mps 727 mmHg 82%
    07:00 +8°C° 0 mm 2 mps 727 mmHg 78%
    08:00 +9°C° 0 mm 3 mps 727 mmHg 74%
    09:00 +10°C° 0 mm 3 mps 727 mmHg 69%
    10:00 +10°C° 0.1 mm 3 mps 727 mmHg 70%
    11:00 +10°C° 0.1 mm 3 mps 727 mmHg 71%
    12:00 +10°C° 0.1 mm 3 mps 727 mmHg 72%
    13:00 +9°C° 0.4 mm 3 mps 726 mmHg 75%
    14:00 +9°C° 0.4 mm 3 mps 725 mmHg 78%
    15:00 +9°C° 0.4 mm 3 mps 724 mmHg 80%
    16:00 +8°C° 0.8 mm 3 mps 724 mmHg 84%
    17:00 +7°C° 0.8 mm 4 mps 724 mmHg 87%
    18:00 +6°C° 0.8 mm 4 mps 723 mmHg 91%
    19:00 +6°C° 1 mm 4 mps 723 mmHg 91%
    20:00 +5°C° 1 mm 4 mps 723 mmHg 92%
    21:00 +5°C° 1 mm 4 mps 724 mmHg 92%
    22:00 +4°C° 0.6 mm 4 mps 723 mmHg 92%
    23:00 +3°C° 0.6 mm 5 mps 723 mmHg 93%

    Tomorrow, 31 March, Tuesday

    Time Temperature Precipitation Wind Pressure Humidity
    00:00 +2°C° 0.6 mm 5 mps 723 mmHg 93%
    01:00 +3°C° 0 mm 4 mps 722 mmHg 92%
    02:00 +3°C° 0 mm 4 mps 721 mmHg 90%
    03:00 +3°C° 0 mm 3 mps 721 mmHg 89%
    04:00 +3°C° 0.3 mm 3 mps 721 mmHg 89%
    05:00 +2°C° 0.3 mm 3 mps 721 mmHg 90%
    06:00 +2°C° 0.3 mm 3 mps 720 mmHg 90%
    07:00 +3°C° 0.1 mm 3 mps 720 mmHg 90%
    08:00 +3°C° 0.1 mm 3 mps 720 mmHg 89%
    09:00 +4°C° 0.1 mm 3 mps 720 mmHg 89%
    10:00 +4°C° 0.3 mm 3 mps 721 mmHg 90%
    11:00 +5°C° 0.3 mm 3 mps 721 mmHg 91%
    12:00 +7°C° 0.3 mm 3 mps 721 mmHg 93%
    13:00 +8°C° 0.1 mm 3 mps 720 mmHg 91%
    14:00 +10°C° 0.1 mm 3 mps 720 mmHg 89%
    15:00 +11°C° 0.1 mm 3 mps 720 mmHg 87%
    16:00 +11°C° 2 mm 3 mps 720 mmHg 90%
    17:00 +11°C° 2 mm 4 mps 719 mmHg 92%
    18:00 +10°C° 2 mm 4 mps 719 mmHg 95%
    19:00 +10°C° 1.4 mm 3 mps 720 mmHg 96%
    20:00 +10°C° 1.4 mm 3 mps 720 mmHg 97%
    21:00 +9°C° 1.4 mm 2 mps 721 mmHg 97%
    22:00 +9°C° 0.4 mm 2 mps 721 mmHg 97%
    23:00 +9°C° 0.4 mm 3 mps 722 mmHg 97%

    Day after tomorrow, 1 April, Wednesday

    Time Temperature Precipitation Wind Pressure Humidity
    00:00 +8°C° 0.4 mm 3 mps 723 mmHg 96%
    01:00 +8°C° 0 mm 3 mps 723 mmHg 96%
    02:00 +8°C° 0 mm 3 mps 723 mmHg 96%
    03:00 +7°C° 0 mm 2 mps 724 mmHg 96%
    04:00 +7°C° 0 mm 2 mps 724 mmHg 96%
    05:00 +6°C° 0 mm 2 mps 725 mmHg 96%
    06:00 +5°C° 0 mm 2 mps 725 mmHg 97%
    07:00 +6°C° 0 mm 2 mps 726 mmHg 92%
    08:00 +7°C° 0 mm 2 mps 726 mmHg 88%
    09:00 +8°C° 0 mm 2 mps 727 mmHg 83%
    10:00 +9°C° 0 mm 2 mps 727 mmHg 76%
    11:00 +10°C° 0 mm 2 mps 727 mmHg 69%
    12:00 +12°C° 0 mm 2 mps 728 mmHg 62%
    13:00 +12°C° 0 mm 2 mps 728 mmHg 59%
    14:00 +13°C° 0 mm 2 mps 727 mmHg 57%
    15:00 +13°C° 0 mm 1 mps 727 mmHg 54%
    16:00 +12°C° 0 mm 1 mps 727 mmHg 58%
    17:00 +12°C° 0 mm 1 mps 727 mmHg 62%
    18:00 +12°C° 0 mm 1 mps 727 mmHg 66%
    19:00 +10°C° 0 mm 1 mps 727 mmHg 71%
    20:00 +9°C° 0 mm 1 mps 728 mmHg 77%
    21:00 +7°C° 0 mm 1 mps 728 mmHg 83%
    22:00 +7°C° 0 mm 1 mps 728 mmHg 84%
    23:00 +6°C° 0 mm 1 mps 728 mmHg 85%

    2 April, Thursday

    Time Temperature Precipitation Wind Pressure Humidity
    00:00 +6°C° 0 mm 1 mps 728 mmHg 86%
    01:00 +6°C° 0 mm 1 mps 728 mmHg 86%
    02:00 +6°C° 0 mm 1 mps 727 mmHg 85%
    03:00 +6°C° 0 mm 1 mps 727 mmHg 84%
    04:00 +6°C° 0 mm 1 mps 727 mmHg 86%
    05:00 +5°C° 0 mm 1 mps 727 mmHg 88%
    06:00 +5°C° 0 mm 1 mps 727 mmHg 90%
    07:00 +7°C° 0 mm 1 mps 727 mmHg 83%
    08:00 +9°C° 0 mm 1 mps 727 mmHg 75%
    09:00 +11°C° 0 mm 1 mps 728 mmHg 68%
    10:00 +13°C° 0 mm 1 mps 728 mmHg 61%
    11:00 +14°C° 0 mm 1 mps 728 mmHg 55%
    12:00 +16°C° 0 mm 1 mps 728 mmHg 49%
    13:00 +16°C° 0 mm 1 mps 728 mmHg 49%
    14:00 +18°C° 0 mm 1 mps 728 mmHg 50%
    15:00 +16°C° 0 mm 0 mps 727 mmHg 51%
    16:00 +16°C° 0 mm 1 mps 727 mmHg 56%
    17:00 +15°C° 0 mm 1 mps 727 mmHg 61%
    18:00 +15°C° 0 mm 1 mps 727 mmHg 66%
    19:00 +13°C° 0 mm 1 mps 727 mmHg 72%
    20:00 +11°C° 0 mm 1 mps 728 mmHg 78%
    21:00 +9°C° 0 mm 1 mps 728 mmHg 84%
    22:00 +9°C° 0 mm 1 mps 728 mmHg 85%
    23:00 +9°C° 0 mm 1 mps 728 mmHg 87%

    3 April, Friday

    Time Temperature Precipitation Wind Pressure Humidity
    00:00 +8°C° 0 mm 1 mps 728 mmHg 88%
    01:00 +8°C° 0 mm 1 mps 728 mmHg 88%
    02:00 +8°C° 0 mm 1 mps 728 mmHg 89%
    03:00 +8°C° 0 mm 1 mps 728 mmHg 89%
    04:00 +7°C° 0 mm 1 mps 728 mmHg 90%
    05:00 +7°C° 0 mm 1 mps 728 mmHg 91%
    06:00 +7°C° 0 mm 1 mps 728 mmHg 91%
    07:00 +8°C° 0 mm 2 mps 728 mmHg 84%
    08:00 +10°C° 0 mm 2 mps 728 mmHg 76%
    09:00 +12°C° 0 mm 2 mps 728 mmHg 68%
    10:00 +13°C° 0 mm 3 mps 728 mmHg 62%
    11:00 +16°C° 0 mm 3 mps 728 mmHg 57%
    12:00 +17°C° 0 mm 4 mps 728 mmHg 51%
    13:00 +18°C° 0 mm 4 mps 727 mmHg 50%
    14:00 +19°C° 0 mm 4 mps 727 mmHg 48%
    15:00 +19°C° 0 mm 4 mps 726 mmHg 47%
    16:00 +18°C° 0 mm 3 mps 726 mmHg 53%
    17:00 +18°C° 0 mm 3 mps 726 mmHg 59%
    18:00 +17°C° 0 mm 2 mps 725 mmHg 65%
    19:00 +15°C° 0 mm 2 mps 725 mmHg 69%
    20:00 +14°C° 0 mm 2 mps 726 mmHg 73%
    21:00 +12°C° 0 mm 2 mps 726 mmHg 76%
    22:00 +12°C° 0 mm 2 mps 726 mmHg 76%
    23:00 +12°C° 0 mm 2 mps 726 mmHg 75%

    4 April, Saturday

    Time Temperature Precipitation Wind Pressure Humidity
    00:00 +12°C° 0 mm 2 mps 726 mmHg 74%
    01:00 +12°C° 0 mm 2 mps 726 mmHg 75%
    02:00 +10°C° 0 mm 3 mps 725 mmHg 76%
    03:00 +10°C° 0 mm 3 mps 725 mmHg 77%
    04:00 +10°C° 0 mm 3 mps 725 mmHg 76%
    05:00 +9°C° 0 mm 3 mps 725 mmHg 76%
    06:00 +9°C° 0 mm 3 mps 725 mmHg 76%
    07:00 +10°C° 0 mm 4 mps 725 mmHg 72%
    08:00 +10°C° 0 mm 5 mps 726 mmHg 68%
    09:00 +12°C° 0 mm 5 mps 726 mmHg 65%
    10:00 +12°C° 0 mm 5 mps 726 mmHg 68%
    11:00 +10°C° 0 mm 5 mps 726 mmHg 71%
    12:00 +10°C° 0 mm 5 mps 727 mmHg 74%
    13:00 +11°C° 0.3 mm 4 mps 726 mmHg 79%
    14:00 +11°C° 0.3 mm 4 mps 726 mmHg 84%
    15:00 +11°C° 0.3 mm 4 mps 726 mmHg 89%
    16:00 +11°C° 0.6 mm 4 mps 726 mmHg 91%
    17:00 +10°C° 0.6 mm 3 mps 726 mmHg 93%
    18:00 +10°C° 0.6 mm 3 mps 726 mmHg 95%
    19:00 +10°C° 0.4 mm 2 mps 727 mmHg 96%
    20:00 +10°C° 0.4 mm 2 mps 727 mmHg 96%
    21:00 +10°C° 0.4 mm 2 mps 727 mmHg 96%
    22:00 +10°C° 0.3 mm 3 mps 728 mmHg 96%
    23:00 +10°C° 0.3 mm 3 mps 728 mmHg 96%
    Show more